Date String (YYYY-MM-DD hh:mm:ss) UTC,Instrument flags,Ambient pressure (hPa),Sample flow (lpm),Bypass flow (lpm),Sample temperature (°C),Ambient temperature (°C),ASC tube jacket temperature (°C),LED temperature (°C),Box temperature (°C),Sample RH (%),Span deviation,Mass concentration (μg/m³),Mass concentration (μg/m³),Mass concentration (μg/m³)
DateTimeUTC,F1_M11,P_M11,Q1_M11,Q2_M11,T1_M11,T2_M11,T3_M11,T4_M11,T5_M11,U1_M11,ZSPAN_M11,X0_M11,X2_M11,X1_M11
2022-11-11 09:00:00,,0827.5,5.01,0.00,22.7,21.4,00.0,31.5,24.6,08.7,0000.0,0006.97,0003.61,0003.29
2022-11-11 09:01:00,,0827.5,4.98,0.00,22.7,21.4,00.0,31.5,24.5,08.7,0000.0,0006.64,0003.59,0003.27
2022-11-11 09:02:00,,0827.5,5.01,0.00,22.7,21.3,00.0,31.6,24.5,08.7,0000.0,0006.39,0003.58,0003.26
2022-11-11 09:03:00,,0827.5,5.00,0.00,22.7,21.3,00.0,31.6,24.5,08.7,0000.0,0006.51,0003.55,0003.24
2022-11-11 09:04:00,,0827.4,5.00,0.00,22.7,21.3,00.0,31.5,24.4,08.7,0000.0,0007.25,0003.54,0003.22
2022-11-11 09:05:00,,0827.4,4.99,0.00,22.7,21.2,00.0,31.5,24.4,08.7,0000.0,0007.06,0003.49,0003.20
2022-11-11 09:06:00,,0827.4,5.02,0.00,22.7,21.5,00.0,31.5,24.5,08.7,0000.0,0007.19,0003.49,0003.19
2022-11-11 09:07:00,,0827.5,4.99,0.00,22.7,22.2,00.0,31.5,24.7,08.6,0000.0,0007.50,0003.46,0003.17
2022-11-11 09:08:00,,0827.6,5.01,0.00,22.8,22.6,00.0,31.5,24.8,08.6,0000.0,0007.50,0003.44,0003.16
2022-11-11 09:09:00,,0827.5,5.00,0.00,22.8,22.3,00.0,31.5,24.8,08.6,0000.0,0007.85,0003.44,0003.16
2022-11-11 09:10:00,,0827.5,5.02,0.00,22.8,22.1,00.0,31.5,24.8,08.6,0000.0,0008.04,0003.45,0003.16
2022-11-11 09:11:00,,0827.5,4.99,0.00,22.8,21.8,00.0,31.5,24.7,08.6,0000.0,0008.15,0003.45,0003.17
2022-11-11 09:12:00,,0827.6,5.01,0.00,22.8,21.6,00.0,31.5,24.7,08.6,0000.0,0008.28,0003.46,0003.17
2022-11-11 09:13:00,,0827.5,5.01,0.00,22.8,21.5,00.0,31.6,24.6,08.6,0000.0,0008.16,0003.46,0003.17
2022-11-11 09:14:00,,0827.5,4.98,0.00,22.8,21.4,00.0,31.6,24.6,08.5,0000.0,0008.03,0003.47,0003.17
2022-11-11 09:15:00,,0827.5,5.02,0.00,22.7,21.4,00.0,31.6,24.5,08.5,0000.0,0007.67,0003.47,0003.17
2022-11-11 09:16:00,,0827.6,4.98,0.00,22.7,21.3,00.0,31.6,24.5,08.5,0000.0,0007.68,0003.47,0003.17
2022-11-11 09:17:00,,0827.6,5.00,0.00,22.7,21.3,00.0,31.6,24.5,08.5,0000.0,0007.69,0003.45,0003.16
2022-11-11 09:18:00,,0827.7,5.01,0.00,22.7,21.3,00.0,31.6,24.5,08.5,0000.0,0007.60,0003.42,0003.15
2022-11-11 09:19:00,,0827.7,4.99,0.00,22.7,21.2,00.0,31.5,24.5,08.5,0000.0,0007.62,0003.40,0003.15
2022-11-11 09:20:00,,0827.7,5.00,0.00,22.7,21.2,00.0,31.5,24.4,08.5,0000.0,0007.76,0003.43,0003.15
2022-11-11 09:21:00,,0827.7,5.01,0.00,22.6,21.2,00.0,31.5,24.4,08.6,0000.0,0008.45,0003.43,0003.15
2022-11-11 09:22:00,,0827.7,4.98,0.00,22.6,21.2,00.0,31.5,24.4,08.6,0000.0,0008.44,0003.47,0003.14
2022-11-11 09:23:00,,0827.7,5.02,0.00,22.7,21.7,00.0,31.5,24.5,08.6,0000.0,0008.51,0003.52,0003.14
2022-11-11 09:24:00,,0827.7,4.99,0.00,22.7,22.5,00.0,31.5,24.7,08.5,0000.0,0008.48,0003.51,0003.13
2022-11-11 09:25:00,,0827.7,5.01,0.00,22.8,22.4,00.0,31.5,24.8,08.5,0000.0,0008.66,0003.52,0003.13
2022-11-11 09:26:00,,0827.7,5.00,0.00,22.8,22.1,00.0,31.5,24.7,08.5,0000.0,0008.80,0003.51,0003.13
2022-11-11 09:27:00,,0827.7,4.99,0.00,22.8,21.9,00.0,31.5,24.7,08.5,0000.0,0008.85,0003.53,0003.13
2022-11-11 09:28:00,,0827.7,5.02,0.00,22.8,21.7,00.0,31.5,24.6,08.5,0000.0,0008.70,0003.52,0003.12
2022-11-11 09:29:00,,0827.7,5.00,0.00,22.8,21.5,00.0,31.5,24.6,08.5,0000.0,0008.30,0003.52,0003.12
2022-11-11 09:30:00,,0827.7,4.99,0.00,22.7,21.5,00.0,31.5,24.6,08.5,0000.0,0008.04,0003.53,0003.12
2022-11-11 09:31:00,,0827.8,5.00,0.00,22.7,21.4,00.0,31.5,24.5,08.5,0000.0,0007.64,0003.51,0003.12
2022-11-11 09:32:00,,0827.7,5.03,0.00,22.7,21.4,00.0,31.5,24.5,08.5,0000.0,0006.37,0003.50,0003.13
2022-11-11 09:33:00,,0827.7,5.01,0.00,22.7,21.3,00.0,31.5,24.5,08.5,0000.0,0006.04,0003.45,0003.13
2022-11-11 09:34:00,,0827.7,4.99,0.00,22.7,21.3,00.0,31.5,24.5,08.5,0000.0,0006.09,0003.39,0003.13
2022-11-11 09:35:00,,0827.7,5.01,0.00,22.7,21.3,00.0,31.5,24.4,08.5,0000.0,0006.97,0003.40,0003.14
2022-11-11 09:36:00,,0827.7,5.01,0.00,22.7,21.2,00.0,31.5,24.4,08.5,0000.0,0007.20,0003.40,0003.15
2022-11-11 09:37:00,,0827.7,5.00,0.00,22.6,21.2,00.0,31.5,24.4,08.5,0000.0,0007.21,0003.44,0003.16
2022-11-11 09:38:00,,0827.7,5.00,0.00,22.7,21.8,00.0,31.5,24.6,08.5,0000.0,0007.59,0003.44,0003.16
2022-11-11 09:39:00,,0827.7,4.98,0.00,22.8,22.5,00.0,31.5,24.8,08.5,0000.0,0008.50,0003.46,0003.17
2022-11-11 09:40:00,,0827.7,5.00,0.00,22.8,22.4,00.0,31.5,24.8,08.5,0000.0,0009.05,0003.47,0003.18
2022-11-11 09:41:00,,0827.7,4.99,0.00,22.8,22.1,00.0,31.5,24.7,08.5,0000.0,0009.20,0003.48,0003.19
2022-11-11 09:42:00,,0827.7,5.01,0.00,22.8,21.9,00.0,31.5,24.7,08.5,0000.0,0009.16,0003.50,0003.21
2022-11-11 09:43:00,,0827.7,4.99,0.00,22.8,21.7,00.0,31.5,24.7,08.5,0000.0,0009.25,0003.51,0003.21
2022-11-11 09:44:00,,0827.7,5.00,0.00,22.8,21.6,00.0,31.5,24.6,08.5,0000.0,0009.59,0003.52,0003.21
2022-11-11 09:45:00,,0827.7,5.02,0.00,22.8,21.5,00.0,31.5,24.6,08.5,0000.0,0009.58,0003.55,0003.22
2022-11-11 09:46:00,,0827.7,4.99,0.00,22.7,21.4,00.0,31.5,24.6,08.5,0000.0,0009.30,0003.56,0003.23
2022-11-11 09:47:00,,0827.7,5.00,0.00,22.7,21.3,00.0,31.6,24.5,08.5,0000.0,0008.74,0003.57,0003.24
2022-11-11 09:48:00,,0827.7,5.00,0.00,22.7,21.3,00.0,31.5,24.5,08.5,0000.0,0008.75,0003.58,0003.25
2022-11-11 09:49:00,,0827.7,4.98,0.00,22.7,21.3,00.0,31.5,24.5,08.5,0000.0,0008.48,0003.57,0003.26
2022-11-11 09:50:00,,0827.7,4.99,0.00,22.7,21.2,00.0,31.5,24.4,08.6,0000.0,0007.61,0003.56,0003.27
2022-11-11 09:51:00,,0827.8,5.02,0.00,22.7,21.2,00.0,31.5,24.4,08.6,0000.0,0006.86,0003.59,0003.27
2022-11-11 09:52:00,,0827.7,5.00,0.00,22.7,21.6,00.0,31.5,24.5,08.6,0000.0,0006.48,0003.59,0003.27
2022-11-11 09:53:00,,0827.8,5.01,0.00,22.8,22.4,00.0,31.5,24.7,08.6,0000.0,0006.31,0003.56,0003.26
2022-11-11 09:54:00,,0827.8,4.99,0.00,22.8,22.6,00.0,31.5,24.8,08.5,0000.0,0006.14,0003.54,0003.25
2022-11-11 09:55:00,,0827.8,4.99,0.00,22.8,22.3,00.0,31.5,24.8,08.6,0000.0,0005.58,0003.55,0003.25
2022-11-11 09:56:00,,0827.8,5.01,0.00,22.8,22.0,00.0,31.5,24.8,08.6,0000.0,0005.40,0003.54,0003.25
2022-11-11 09:57:00,,0827.8,5.01,0.00,22.8,21.8,00.0,31.5,24.7,08.6,0000.0,0005.49,0003.55,0003.25
2022-11-11 09:58:00,,0827.8,5.00,0.00,22.8,21.6,00.0,31.6,24.7,08.6,0000.0,0005.48,0003.55,0003.24
2022-11-11 09:59:00,,0827.7,4.99,0.00,22.8,21.5,00.0,31.6,24.6,08.6,0000.0,0005.45,0003.54,0003.24
